Regional Weather Roundup
Issued by NWS

Home | Current Version | Previous Version | Graphics & Text | Print | Product List | Glossary On
Versions: 1 2 3 4 5 6 7 8 9 10 11 12 13 14 15 16 17 18 19 20 21 22 23 24 25 26 27 28 29 30 31 32 33 34 35 36 37 38 39 40 41 42 43 44 45 46 47 48 49 50
000
ASUS43 KLMK 041310
RWRKY
KENTUCKY REGIONAL WEATHER ROUNDUP
NATIONAL WEATHER SERVICE LOUISVILLE KY
900 AM EDT FRI SEP 04 2015

NOTE "FAIR" INDICATES FEW OR NO CLOUDS BELOW 12,000 FEET
WITH NO SIGNIFICANT WEATHER AND/OR OBSTRUCTIONS TO VISIBILITY.

KYZ001>023-026-027-061>063-070>075-041400-
WESTERN AND SOUTH CENTRAL KENTUCKY

CITY           SKY/WX    TMP DP  RH WIND       PRES   REMARKS
PADUCAH        SUNNY     73  70  90 CALM      30.03R FOG
HENDERSON      SUNNY     73  68  83 CALM      30.03R
OWENSBORO      SUNNY     75  70  85 CALM      30.05R HAZE
HOPKINSVILLE   SUNNY     73  68  83 SE2       30.04R
BOWLING GREEN  PTSUNNY   73  69  87 CALM      30.06R
GLASGOW        SUNNY     71  71 100 CALM      30.05S FOG
$$

KYZ024-025-028>034-038-045-046-053-041400-
NORTH CENTRAL KENTUCKY

CITY           SKY/WX    TMP DP  RH WIND       PRES   REMARKS
LOUISVILLE/SDF SUNNY     75  68  78 SE3       30.04R HAZE
LOUISVILLE/LOU SUNNY     75  69  81 CALM      30.05R HAZE
FORT KNOX      SUNNY     73  68  87 CALM      30.04S FOG
$$

KYZ035>037-039>044-047>052-055>060-089>105-041400-
NORTHEAST KENTUCKY

CITY           SKY/WX    TMP DP  RH WIND       PRES   REMARKS
LEXINGTON      SUNNY     74  68  81 CALM      30.07R HAZE
COVINGTON      MOSUNNY   74  70  87 CALM      30.05R
FRANKFORT      SUNNY     73  67  81 CALM      30.06R HAZE
$$

KYZ054-064>069-076>088-106>120-041400-
SOUTHEAST KENTUCKY

CITY           SKY/WX    TMP DP  RH WIND       PRES   REMARKS
JACKSON        SUNNY     72  68  87 CALM      30.09R
LONDON         SUNNY     70  65  84 CALM      30.09R HAZE
SOMERSET       SUNNY     68  68 100 CALM      30.09R FOG
MIDDLESBORO    FOG       65  65 100 CALM      30.11R VSB 1/4
MONTICELLO     SUNNY     71  70  97 CALM      30.10R FOG
$$



USA.gov is the U.S. government's official web portal to all federal, state and local government web resources and services.